TimeCST,TemperatureF,Dew PointF,Humidity,Sea Level PressureIn,VisibilityMPH,Wind Direction,Wind SpeedMPH,Gust SpeedMPH,PrecipitationIn,Events,Conditions,WindDirDegrees,DateUTC
12:00 AM,72,70,92,30.06,12,Calm,Calm,,,,Mostly Cloudy,,2013-01-22 06:00:00
3:00 AM,71,69,90,30.02,12,Calm,Calm,,,,Scattered Clouds,,2013-01-22 09:00:00
5:00 AM,69.8,68.0,94,30.04,6.2,NW,3.5,-,N/A,,Scattered Clouds,320,2013-01-22 11:00:00
6:00 AM,70,68,92,30.06,12,NNW,6.9,,,,Mostly Cloudy,330,2013-01-22 12:00:00
6:00 AM,69.8,68.0,94,30.06,6.2,NNW,6.9,-,N/A,,Mostly Cloudy,330,2013-01-22 12:00:00
7:00 AM,69.8,68.0,94,30.06,6.2,NNW,9.2,-,N/A,,Mostly Cloudy,330,2013-01-22 13:00:00
8:00 AM,71.6,68.0,88,30.09,6.2,NNW,9.2,-,N/A,,Mostly Cloudy,340,2013-01-22 14:00:00
9:00 AM,74,69,81,30.13,12,NW,5.8,,,,Mostly Cloudy,320,2013-01-22 15:00:00
9:00 AM,73.4,69.8,88,30.12,6.2,NW,5.8,-,N/A,,Mostly Cloudy,320,2013-01-22 15:00:00
10:00 AM,78.8,71.6,78,30.12,6.2,WNW,5.8,-,N/A,,Mostly Cloudy,290,2013-01-22 16:00:00
11:00 AM,80.6,69.8,70,30.11,6.2,ENE,5.8,-,N/A,,Mostly Cloudy,60,2013-01-22 17:00:00
12:00 PM,81,69,60,30.09,12,NE,5.8,,,,Mostly Cloudy,40,2013-01-22 18:00:00
12:00 PM,80.6,69.8,70,30.08,6.2,NE,5.8,-,N/A,,Scattered Clouds,40,2013-01-22 18:00:00
1:00 PM,80.6,69.8,70,30.06,6.2,NE,9.2,-,N/A,,Mostly Cloudy,50,2013-01-22 19:00:00
2:00 PM,80.6,69.8,70,30.04,6.2,NNW,9.2,-,N/A,,Mostly Cloudy,340,2013-01-22 20:00:00
3:00 PM,80,71,66,30.04,12,NNE,3.5,,,,Mostly Cloudy,30,2013-01-22 21:00:00
3:00 PM,80.6,69.8,70,30.03,6.2,NNE,3.5,-,N/A,,Mostly Cloudy,30,2013-01-22 21:00:00
4:00 PM,78.8,69.8,74,30.05,6.2,East,11.5,-,N/A,,Mostly Cloudy,80,2013-01-22 22:00:00
5:00 PM,75.2,71.6,89,30.07,6.2,ENE,11.5,-,N/A,Rain,Light Rain Showers,70,2013-01-22 23:00:00
6:00 PM,74,70,83,30.07,12,ENE,8.1,,,Rain,Light Rain Showers,60,2013-01-23 00:00:00
6:00 PM,-9999,-9999,N/A,30.07,6.2,ENE,8.1,-,N/A,,Mostly Cloudy,60,2013-01-23 00:00:00
7:00 PM,75.2,69.8,83,30.08,6.2,NNE,8.1,-,N/A,,Mostly Cloudy,30,2013-01-23 01:00:00
9:00 PM,72,69,89,30.14,11,NNE,3.5,,,Rain,Light Rain Showers,20,2013-01-23 03:00:00
9:00 PM,71.6,69.8,94,30.14,6.2,NNE,3.5,-,N/A,Rain,Rain Showers,20,2013-01-23 03:00:00